[Date Prev][Date Next][Thread Prev][Thread Next] - [Date Index][Thread Index][Author Index]

2 Line ISS Keps 5-22



ISS
1 25544U 98067A   02142.20393742  .00028175  00000-0  35081-3 0  4751
2 25544  51.6355 183.5795 0006540 100.7040  25.0728 15.59682962199974


----
Via the sarex mailing list at AMSAT.ORG courtesy of AMSAT-NA.
To unsubscribe, send "unsubscribe sarex" to Majordomo@amsat.org



AMSAT Top AMSAT Home